#datetime,building,power
2023-05-04T00:00:00,mcc,48.72
2023-05-04T00:01:00,mcc,44.33
2023-05-04T00:02:00,mcc,43.95
2023-05-04T00:03:00,mcc,44.94
2023-05-04T00:04:00,mcc,46.19
2023-05-04T00:05:00,mcc,43.31
2023-05-04T00:06:00,mcc,44.32
2023-05-04T00:07:00,mcc,47.31
2023-05-04T00:08:00,mcc,50.38
2023-05-04T00:09:00,mcc,41.42
2023-05-04T00:10:00,mcc,40.98
2023-05-04T00:11:00,mcc,41.29
2023-05-04T00:12:00,mcc,40.99
2023-05-04T00:13:00,mcc,41.23
2023-05-04T00:14:00,mcc,41.10
2023-05-04T00:15:00,mcc,40.23
2023-05-04T00:16:00,mcc,43.64
2023-05-04T00:17:00,mcc,43.85
2023-05-04T00:18:00,mcc,45.30
2023-05-04T00:19:00,mcc,43.05
2023-05-04T00:20:00,mcc,41.85
2023-05-04T00:21:00,mcc,42.84
2023-05-04T00:22:00,mcc,43.16
2023-05-04T00:23:00,mcc,41.25
2023-05-04T00:24:00,mcc,42.58
2023-05-04T00:25:00,mcc,39.82
2023-05-04T00:26:00,mcc,38.36
2023-05-04T00:27:00,mcc,39.01
2023-05-04T00:28:00,mcc,41.16
2023-05-04T00:29:00,mcc,37.59
2023-05-04T00:30:00,mcc,37.51
2023-05-04T00:31:00,mcc,36.52
2023-05-04T00:32:00,mcc,38.41
2023-05-04T00:33:00,mcc,36.67
2023-05-04T00:34:00,mcc,36.50
2023-05-04T00:35:00,mcc,38.20
2023-05-04T00:36:00,mcc,35.46
2023-05-04T00:37:00,mcc,36.80
2023-05-04T00:38:00,mcc,36.42
2023-05-04T00:39:00,mcc,38.56
2023-05-04T00:40:00,mcc,37.73
2023-05-04T00:41:00,mcc,37.75
2023-05-04T00:42:00,mcc,40.66
2023-05-04T00:43:00,mcc,37.49
2023-05-04T00:44:00,mcc,35.62
2023-05-04T00:45:00,mcc,37.24
2023-05-04T00:46:00,mcc,38.23
2023-05-04T00:47:00,mcc,46.51
2023-05-04T00:48:00,mcc,37.92
2023-05-04T00:49:00,mcc,37.60
2023-05-04T00:50:00,mcc,37.29
2023-05-04T00:51:00,mcc,37.90
2023-05-04T00:52:00,mcc,37.53
2023-05-04T00:53:00,mcc,38.97
2023-05-04T00:54:00,mcc,38.74
2023-05-04T00:55:00,mcc,39.38
2023-05-04T00:56:00,mcc,40.09
2023-05-04T00:57:00,mcc,40.42
2023-05-04T00:58:00,mcc,41.35
2023-05-04T00:59:00,mcc,39.30
2023-05-04T01:00:00,mcc,40.66
2023-05-04T01:01:00,mcc,36.92
2023-05-04T01:02:00,mcc,35.60
2023-05-04T01:03:00,mcc,37.97
2023-05-04T01:04:00,mcc,36.04
2023-05-04T01:05:00,mcc,34.64
2023-05-04T01:06:00,mcc,35.21
2023-05-04T01:07:00,mcc,46.27
2023-05-04T01:08:00,mcc,36.55
2023-05-04T01:09:00,mcc,36.17
2023-05-04T01:10:00,mcc,38.01
2023-05-04T01:11:00,mcc,35.65
2023-05-04T01:12:00,mcc,36.15
2023-05-04T01:13:00,mcc,35.41
2023-05-04T01:14:00,mcc,36.95
2023-05-04T01:15:00,mcc,34.40
2023-05-04T01:16:00,mcc,34.21
2023-05-04T01:17:00,mcc,35.21
2023-05-04T01:18:00,mcc,37.03
2023-05-04T01:19:00,mcc,36.13
2023-05-04T01:20:00,mcc,36.95
2023-05-04T01:21:00,mcc,37.76
2023-05-04T01:22:00,mcc,36.23
2023-05-04T01:23:00,mcc,36.80
2023-05-04T01:24:00,mcc,37.62
2023-05-04T01:25:00,mcc,39.49
2023-05-04T01:26:00,mcc,37.85
2023-05-04T01:27:00,mcc,37.51
2023-05-04T01:28:00,mcc,40.50
2023-05-04T01:29:00,mcc,36.95
2023-05-04T01:30:00,mcc,38.08
2023-05-04T01:31:00,mcc,40.43
2023-05-04T01:32:00,mcc,41.79
2023-05-04T01:33:00,mcc,40.31
2023-05-04T01:34:00,mcc,38.30
2023-05-04T01:35:00,mcc,38.82
2023-05-04T01:36:00,mcc,36.06
2023-05-04T01:37:00,mcc,39.21
2023-05-04T01:38:00,mcc,40.25
2023-05-04T01:39:00,mcc,41.51
2023-05-04T01:40:00,mcc,47.85
2023-05-04T01:41:00,mcc,58.36
2023-05-04T01:42:00,mcc,58.41
2023-05-04T01:43:00,mcc,60.83
2023-05-04T01:44:00,mcc,57.08
2023-05-04T01:45:00,mcc,39.11
2023-05-04T01:46:00,mcc,47.89
2023-05-04T01:47:00,mcc,36.87
2023-05-04T01:48:00,mcc,37.33
2023-05-04T01:49:00,mcc,37.14
2023-05-04T01:50:00,mcc,38.59
2023-05-04T01:51:00,mcc,36.34
2023-05-04T01:52:00,mcc,37.95
2023-05-04T01:53:00,mcc,40.08
2023-05-04T01:54:00,mcc,39.30
2023-05-04T01:55:00,mcc,39.33
2023-05-04T01:56:00,mcc,39.63
2023-05-04T01:57:00,mcc,42.63
2023-05-04T01:58:00,mcc,39.02
2023-05-04T01:59:00,mcc,39.48
2023-05-04T02:00:00,mcc,41.13
2023-05-04T02:01:00,mcc,38.74
2023-05-04T02:02:00,mcc,40.34
2023-05-04T02:03:00,mcc,37.53
2023-05-04T02:04:00,mcc,40.52
2023-05-04T02:05:00,mcc,39.62
2023-05-04T02:06:00,mcc,40.20
2023-05-04T02:07:00,mcc,41.68
2023-05-04T02:08:00,mcc,37.47
2023-05-04T02:09:00,mcc,37.43
2023-05-04T02:10:00,mcc,37.06
2023-05-04T02:11:00,mcc,37.93
2023-05-04T02:12:00,mcc,34.85
2023-05-04T02:13:00,mcc,36.09
2023-05-04T02:14:00,mcc,38.54
2023-05-04T02:15:00,mcc,37.30
2023-05-04T02:16:00,mcc,38.56
2023-05-04T02:17:00,mcc,38.87
2023-05-04T02:18:00,mcc,40.50
2023-05-04T02:19:00,mcc,37.11
2023-05-04T02:20:00,mcc,38.36
2023-05-04T02:21:00,mcc,38.92
2023-05-04T02:22:00,mcc,40.46
2023-05-04T02:23:00,mcc,37.43
2023-05-04T02:24:00,mcc,37.31
2023-05-04T02:25:00,mcc,38.97
2023-05-04T02:26:00,mcc,36.70
2023-05-04T02:27:00,mcc,35.61
2023-05-04T02:28:00,mcc,33.12
2023-05-04T02:29:00,mcc,33.34
2023-05-04T02:30:00,mcc,31.39
2023-05-04T02:31:00,mcc,31.27
2023-05-04T02:32:00,mcc,33.39
2023-05-04T02:33:00,mcc,32.48
2023-05-04T02:34:00,mcc,32.35
2023-05-04T02:35:00,mcc,34.43
2023-05-04T02:36:00,mcc,36.94
2023-05-04T02:37:00,mcc,32.87
2023-05-04T02:38:00,mcc,34.67
2023-05-04T02:39:00,mcc,36.13
2023-05-04T02:40:00,mcc,32.49
2023-05-04T02:41:00,mcc,35.35
2023-05-04T02:42:00,mcc,34.79
2023-05-04T02:43:00,mcc,42.08
2023-05-04T02:44:00,mcc,34.21
2023-05-04T02:45:00,mcc,33.24
2023-05-04T02:46:00,mcc,36.57
2023-05-04T02:47:00,mcc,32.77
2023-05-04T02:48:00,mcc,32.42
2023-05-04T02:49:00,mcc,31.80
2023-05-04T02:50:00,mcc,32.37
2023-05-04T02:51:00,mcc,32.96
2023-05-04T02:52:00,mcc,33.86
2023-05-04T02:53:00,mcc,36.86
2023-05-04T02:54:00,mcc,36.14
2023-05-04T02:55:00,mcc,36.80
2023-05-04T02:56:00,mcc,35.85
2023-05-04T02:57:00,mcc,38.81
2023-05-04T02:58:00,mcc,37.42
2023-05-04T02:59:00,mcc,38.48
2023-05-04T03:00:00,mcc,37.52
2023-05-04T03:01:00,mcc,35.08
2023-05-04T03:02:00,mcc,41.96
2023-05-04T03:03:00,mcc,35.31
2023-05-04T03:04:00,mcc,36.62
2023-05-04T03:05:00,mcc,34.57
2023-05-04T03:06:00,mcc,35.72
2023-05-04T03:07:00,mcc,34.82
2023-05-04T03:08:00,mcc,35.43
2023-05-04T03:09:00,mcc,37.16
2023-05-04T03:10:00,mcc,36.45
2023-05-04T03:11:00,mcc,39.98
2023-05-04T03:12:00,mcc,37.26
2023-05-04T03:13:00,mcc,35.98
2023-05-04T03:14:00,mcc,35.38
2023-05-04T03:15:00,mcc,34.85
2023-05-04T03:16:00,mcc,33.06
2023-05-04T03:17:00,mcc,33.33
2023-05-04T03:18:00,mcc,35.26
2023-05-04T03:19:00,mcc,34.13
2023-05-04T03:20:00,mcc,34.65
2023-05-04T03:21:00,mcc,44.34
2023-05-04T03:22:00,mcc,40.27
2023-05-04T03:23:00,mcc,38.43
2023-05-04T03:24:00,mcc,36.80
2023-05-04T03:25:00,mcc,38.68
2023-05-04T03:26:00,mcc,35.33
2023-05-04T03:27:00,mcc,35.32
2023-05-04T03:28:00,mcc,33.63
2023-05-04T03:29:00,mcc,36.48
2023-05-04T03:30:00,mcc,35.07
2023-05-04T03:31:00,mcc,34.66
2023-05-04T03:32:00,mcc,36.75
2023-05-04T03:33:00,mcc,34.45
2023-05-04T03:34:00,mcc,33.31
2023-05-04T03:35:00,mcc,34.62
2023-05-04T03:36:00,mcc,36.63
2023-05-04T03:37:00,mcc,34.27
2023-05-04T03:38:00,mcc,36.94
2023-05-04T03:39:00,mcc,39.39
2023-05-04T03:40:00,mcc,39.04
2023-05-04T03:41:00,mcc,48.42
2023-05-04T03:42:00,mcc,40.51
2023-05-04T03:43:00,mcc,39.65
2023-05-04T03:44:00,mcc,35.79
2023-05-04T03:45:00,mcc,34.01
2023-05-04T03:46:00,mcc,33.54
2023-05-04T03:47:00,mcc,37.17
2023-05-04T03:48:00,mcc,37.27
2023-05-04T03:49:00,mcc,37.31
2023-05-04T03:50:00,mcc,39.91
2023-05-04T03:51:00,mcc,37.32
2023-05-04T03:52:00,mcc,37.42
2023-05-04T03:53:00,mcc,37.73
2023-05-04T03:54:00,mcc,39.12
2023-05-04T03:55:00,mcc,38.75
2023-05-04T03:56:00,mcc,38.31
2023-05-04T03:57:00,mcc,39.88
2023-05-04T03:58:00,mcc,39.15
2023-05-04T03:59:00,mcc,36.44
2023-05-04T04:00:00,mcc,45.01
2023-05-04T04:01:00,mcc,38.81
2023-05-04T04:02:00,mcc,35.86
2023-05-04T04:03:00,mcc,36.06
2023-05-04T04:04:00,mcc,36.51
2023-05-04T04:05:00,mcc,40.13
2023-05-04T04:06:00,mcc,41.71
2023-05-04T04:07:00,mcc,39.73
2023-05-04T04:08:00,mcc,41.61
2023-05-04T04:09:00,mcc,39.14
2023-05-04T04:10:00,mcc,38.50
2023-05-04T04:11:00,mcc,37.84
2023-05-04T04:12:00,mcc,40.54
2023-05-04T04:13:00,mcc,38.18
2023-05-04T04:14:00,mcc,37.84
2023-05-04T04:15:00,mcc,41.31
2023-05-04T04:16:00,mcc,38.65
2023-05-04T04:17:00,mcc,39.27
2023-05-04T04:18:00,mcc,39.22
2023-05-04T04:19:00,mcc,48.64
2023-05-04T04:20:00,mcc,38.08
2023-05-04T04:21:00,mcc,40.12
2023-05-04T04:22:00,mcc,40.32
2023-05-04T04:23:00,mcc,38.43
2023-05-04T04:24:00,mcc,33.32
2023-05-04T04:25:00,mcc,33.72
2023-05-04T04:26:00,mcc,35.33
2023-05-04T04:27:00,mcc,33.45
2023-05-04T04:28:00,mcc,34.89
2023-05-04T04:29:00,mcc,33.62
2023-05-04T04:30:00,mcc,35.08
2023-05-04T04:31:00,mcc,33.93
2023-05-04T04:32:00,mcc,34.62
2023-05-04T04:33:00,mcc,38.36
2023-05-04T04:34:00,mcc,36.32
2023-05-04T04:35:00,mcc,37.85
2023-05-04T04:36:00,mcc,37.71
2023-05-04T04:37:00,mcc,40.59
2023-05-04T04:38:00,mcc,38.81
2023-05-04T04:39:00,mcc,45.08
2023-05-04T04:40:00,mcc,38.02
2023-05-04T04:41:00,mcc,36.49
2023-05-04T04:42:00,mcc,32.81
2023-05-04T04:43:00,mcc,33.63
2023-05-04T04:44:00,mcc,36.44
2023-05-04T04:45:00,mcc,33.44
2023-05-04T04:46:00,mcc,33.08
2023-05-04T04:47:00,mcc,35.50
2023-05-04T04:48:00,mcc,35.77
2023-05-04T04:49:00,mcc,35.70
2023-05-04T04:50:00,mcc,45.21
2023-05-04T04:51:00,mcc,37.13
2023-05-04T04:52:00,mcc,35.24
2023-05-04T04:53:00,mcc,36.45
2023-05-04T04:54:00,mcc,37.27
2023-05-04T04:55:00,mcc,37.48
2023-05-04T04:56:00,mcc,38.43
2023-05-04T04:57:00,mcc,45.12
2023-05-04T04:58:00,mcc,37.13
2023-05-04T04:59:00,mcc,35.86
2023-05-04T05:00:00,mcc,34.72
2023-05-04T05:01:00,mcc,36.22
2023-05-04T05:02:00,mcc,38.39
2023-05-04T05:03:00,mcc,37.63
2023-05-04T05:04:00,mcc,38.00
2023-05-04T05:05:00,mcc,38.04
2023-05-04T05:06:00,mcc,37.55
2023-05-04T05:07:00,mcc,35.49
2023-05-04T05:08:00,mcc,38.98
2023-05-04T05:09:00,mcc,40.61
2023-05-04T05:10:00,mcc,38.22
2023-05-04T05:11:00,mcc,39.13
2023-05-04T05:12:00,mcc,39.68
2023-05-04T05:13:00,mcc,38.38
2023-05-04T05:14:00,mcc,40.95
2023-05-04T05:15:00,mcc,49.34
2023-05-04T05:16:00,mcc,40.51
2023-05-04T05:17:00,mcc,37.50
2023-05-04T05:18:00,mcc,37.67
2023-05-04T05:19:00,mcc,38.60
2023-05-04T05:20:00,mcc,42.25
2023-05-04T05:21:00,mcc,43.85
2023-05-04T05:22:00,mcc,35.02
2023-05-04T05:23:00,mcc,37.74
2023-05-04T05:24:00,mcc,35.36
2023-05-04T05:25:00,mcc,35.74
2023-05-04T05:26:00,mcc,35.03
2023-05-04T05:27:00,mcc,35.26
2023-05-04T05:28:00,mcc,35.26
2023-05-04T05:29:00,mcc,37.90
2023-05-04T05:30:00,mcc,40.98
2023-05-04T05:31:00,mcc,39.27
2023-05-04T05:32:00,mcc,39.51
2023-05-04T05:33:00,mcc,37.84
2023-05-04T05:34:00,mcc,38.94
2023-05-04T05:35:00,mcc,44.38
2023-05-04T05:36:00,mcc,38.08
2023-05-04T05:37:00,mcc,36.78
2023-05-04T05:38:00,mcc,36.85
2023-05-04T05:39:00,mcc,36.16
2023-05-04T05:40:00,mcc,36.58
2023-05-04T05:41:00,mcc,39.20
2023-05-04T05:42:00,mcc,39.27
2023-05-04T05:43:00,mcc,38.98
2023-05-04T05:44:00,mcc,39.28
2023-05-04T05:45:00,mcc,39.39
2023-05-04T05:46:00,mcc,37.40
2023-05-04T05:47:00,mcc,36.86
2023-05-04T05:48:00,mcc,37.95
2023-05-04T05:49:00,mcc,35.53
2023-05-04T05:50:00,mcc,36.75
2023-05-04T05:51:00,mcc,37.17
2023-05-04T05:52:00,mcc,35.12
2023-05-04T05:53:00,mcc,42.30
2023-05-04T05:54:00,mcc,34.64
2023-05-04T05:55:00,mcc,37.90
2023-05-04T05:56:00,mcc,34.42
2023-05-04T05:57:00,mcc,34.36
2023-05-04T05:58:00,mcc,49.81
2023-05-04T05:59:00,mcc,58.73
2023-05-04T06:00:00,mcc,46.48
2023-05-04T06:01:00,mcc,55.06
2023-05-04T06:02:00,mcc,45.14
2023-05-04T06:03:00,mcc,44.17
2023-05-04T06:04:00,mcc,43.36
2023-05-04T06:05:00,mcc,41.77
2023-05-04T06:06:00,mcc,39.58
2023-05-04T06:07:00,mcc,49.70
2023-05-04T06:08:00,mcc,53.30
2023-05-04T06:09:00,mcc,59.03
2023-05-04T06:10:00,mcc,56.61
2023-05-04T06:11:00,mcc,55.47
2023-05-04T06:12:00,mcc,63.49
2023-05-04T06:13:00,mcc,55.82
2023-05-04T06:14:00,mcc,55.68
2023-05-04T06:15:00,mcc,56.37
2023-05-04T06:16:00,mcc,56.16
2023-05-04T06:17:00,mcc,55.83
2023-05-04T06:18:00,mcc,58.04
2023-05-04T06:19:00,mcc,61.59
2023-05-04T06:20:00,mcc,61.63
2023-05-04T06:21:00,mcc,60.66
2023-05-04T06:22:00,mcc,48.34
2023-05-04T06:23:00,mcc,49.16
2023-05-04T06:24:00,mcc,47.84
2023-05-04T06:25:00,mcc,52.44
2023-05-04T06:26:00,mcc,52.58
2023-05-04T06:27:00,mcc,51.67
2023-05-04T06:28:00,mcc,52.50
2023-05-04T06:29:00,mcc,61.36
2023-05-04T06:30:00,mcc,54.83
2023-05-04T06:31:00,mcc,54.82
2023-05-04T06:32:00,mcc,52.29
2023-05-04T06:33:00,mcc,47.91
2023-05-04T06:34:00,mcc,48.22
2023-05-04T06:35:00,mcc,56.61
2023-05-04T06:36:00,mcc,49.36
2023-05-04T06:37:00,mcc,49.46
2023-05-04T06:38:00,mcc,67.37
2023-05-04T06:39:00,mcc,51.04
2023-05-04T06:40:00,mcc,64.76
2023-05-04T06:41:00,mcc,58.78
2023-05-04T06:42:00,mcc,53.65
2023-05-04T06:43:00,mcc,62.05
2023-05-04T06:44:00,mcc,52.06
2023-05-04T06:45:00,mcc,54.00
2023-05-04T06:46:00,mcc,53.53
2023-05-04T06:47:00,mcc,61.85
2023-05-04T06:48:00,mcc,67.98
2023-05-04T06:49:00,mcc,71.52
2023-05-04T06:50:00,mcc,61.57
2023-05-04T06:51:00,mcc,61.29
2023-05-04T06:52:00,mcc,82.13
2023-05-04T06:53:00,mcc,61.52
2023-05-04T06:54:00,mcc,62.37
2023-05-04T06:55:00,mcc,64.29
2023-05-04T06:56:00,mcc,64.90
2023-05-04T06:57:00,mcc,66.02
2023-05-04T06:58:00,mcc,65.42
2023-05-04T06:59:00,mcc,63.18
2023-05-04T07:00:00,mcc,52.64
2023-05-04T07:01:00,mcc,64.80
2023-05-04T07:02:00,mcc,63.00
2023-05-04T07:03:00,mcc,57.73
2023-05-04T07:04:00,mcc,64.67
2023-05-04T07:05:00,mcc,67.04
2023-05-04T07:06:00,mcc,60.25
2023-05-04T07:07:00,mcc,65.49
2023-05-04T07:08:00,mcc,57.73
2023-05-04T07:09:00,mcc,57.92
2023-05-04T07:10:00,mcc,59.72
2023-05-04T07:11:00,mcc,64.76
2023-05-04T07:12:00,mcc,63.67
2023-05-04T07:13:00,mcc,58.59
2023-05-04T07:14:00,mcc,59.45
2023-05-04T07:15:00,mcc,57.82
2023-05-04T07:16:00,mcc,66.20
2023-05-04T07:17:00,mcc,81.78
2023-05-04T07:18:00,mcc,64.07
2023-05-04T07:19:00,mcc,64.03
2023-05-04T07:20:00,mcc,60.86
2023-05-04T07:21:00,mcc,76.69
2023-05-04T07:22:00,mcc,62.47
2023-05-04T07:23:00,mcc,63.09
2023-05-04T07:24:00,mcc,64.90
2023-05-04T07:25:00,mcc,68.47
2023-05-04T07:26:00,mcc,68.46
2023-05-04T07:27:00,mcc,58.53
2023-05-04T07:28:00,mcc,59.59
2023-05-04T07:29:00,mcc,67.26
2023-05-04T07:30:00,mcc,63.25
2023-05-04T07:31:00,mcc,66.67
2023-05-04T07:32:00,mcc,65.69
2023-05-04T07:33:00,mcc,64.06
2023-05-04T07:34:00,mcc,63.85
2023-05-04T07:35:00,mcc,65.63
2023-05-04T07:36:00,mcc,65.44
2023-05-04T07:37:00,mcc,73.30
2023-05-04T07:38:00,mcc,68.15
2023-05-04T07:39:00,mcc,68.86
2023-05-04T07:40:00,mcc,69.43
2023-05-04T07:41:00,mcc,66.30
2023-05-04T07:42:00,mcc,74.18
2023-05-04T07:43:00,mcc,70.86
2023-05-04T07:44:00,mcc,62.79
2023-05-04T07:45:00,mcc,66.55
2023-05-04T07:46:00,mcc,63.15
2023-05-04T07:47:00,mcc,69.38
2023-05-04T07:48:00,mcc,68.28
2023-05-04T07:49:00,mcc,67.77
2023-05-04T07:50:00,mcc,76.21
2023-05-04T07:51:00,mcc,64.71
2023-05-04T07:52:00,mcc,66.39
2023-05-04T07:53:00,mcc,66.35
2023-05-04T07:54:00,mcc,65.14
2023-05-04T07:55:00,mcc,67.33
2023-05-04T07:56:00,mcc,77.70
2023-05-04T07:57:00,mcc,74.61
2023-05-04T07:58:00,mcc,65.03
2023-05-04T07:59:00,mcc,63.59
2023-05-04T08:00:00,mcc,65.30
2023-05-04T08:01:00,mcc,88.76
2023-05-04T08:02:00,mcc,64.58
2023-05-04T08:03:00,mcc,67.62
2023-05-04T08:04:00,mcc,66.34
2023-05-04T08:05:00,mcc,73.73
2023-05-04T08:06:00,mcc,68.54
2023-05-04T08:07:00,mcc,66.99
2023-05-04T08:08:00,mcc,74.37
2023-05-04T08:09:00,mcc,73.48
2023-05-04T08:10:00,mcc,71.80
2023-05-04T08:11:00,mcc,77.85
2023-05-04T08:12:00,mcc,72.69
2023-05-04T08:13:00,mcc,74.64
2023-05-04T08:14:00,mcc,69.08
2023-05-04T08:15:00,mcc,69.58
2023-05-04T08:16:00,mcc,76.21
2023-05-04T08:17:00,mcc,78.58
2023-05-04T08:18:00,mcc,74.95
2023-05-04T08:19:00,mcc,67.05
2023-05-04T08:20:00,mcc,79.29
2023-05-04T08:21:00,mcc,75.94
2023-05-04T08:22:00,mcc,73.63
2023-05-04T08:23:00,mcc,67.54
2023-05-04T08:24:00,mcc,67.29
2023-05-04T08:25:00,mcc,73.09
2023-05-04T08:26:00,mcc,65.36
2023-05-04T08:27:00,mcc,65.62
2023-05-04T08:28:00,mcc,72.79
2023-05-04T08:29:00,mcc,67.28
2023-05-04T08:30:00,mcc,68.42
2023-05-04T08:31:00,mcc,79.31
2023-05-04T08:32:00,mcc,69.73
2023-05-04T08:33:00,mcc,69.39
2023-05-04T08:34:00,mcc,80.16
2023-05-04T08:35:00,mcc,71.45
2023-05-04T08:36:00,mcc,70.81
2023-05-04T08:37:00,mcc,74.98
2023-05-04T08:38:00,mcc,75.77
2023-05-04T08:39:00,mcc,66.51
2023-05-04T08:40:00,mcc,68.22
2023-05-04T08:41:00,mcc,73.41
2023-05-04T08:42:00,mcc,68.42
2023-05-04T08:43:00,mcc,68.35
2023-05-04T08:44:00,mcc,82.51
2023-05-04T08:45:00,mcc,71.44
2023-05-04T08:46:00,mcc,70.47
2023-05-04T08:47:00,mcc,76.30
2023-05-04T08:48:00,mcc,68.76
2023-05-04T08:49:00,mcc,70.88
2023-05-04T08:50:00,mcc,69.29
2023-05-04T08:51:00,mcc,77.93
2023-05-04T08:52:00,mcc,71.93
2023-05-04T08:53:00,mcc,69.64
2023-05-04T08:54:00,mcc,74.49
2023-05-04T08:55:00,mcc,83.90
2023-05-04T08:56:00,mcc,70.18
2023-05-04T08:57:00,mcc,67.26
2023-05-04T08:58:00,mcc,72.44
2023-05-04T08:59:00,mcc,68.39
2023-05-04T09:00:00,mcc,68.52
2023-05-04T09:01:00,mcc,68.28
2023-05-04T09:02:00,mcc,71.41
2023-05-04T09:03:00,mcc,68.89
2023-05-04T09:04:00,mcc,67.82
2023-05-04T09:05:00,mcc,68.45
2023-05-04T09:06:00,mcc,66.33
2023-05-04T09:07:00,mcc,67.77
2023-05-04T09:08:00,mcc,76.57
2023-05-04T09:09:00,mcc,65.81
2023-05-04T09:10:00,mcc,67.81
2023-05-04T09:11:00,mcc,66.59
2023-05-04T09:12:00,mcc,67.41
2023-05-04T09:13:00,mcc,71.50
2023-05-04T09:14:00,mcc,79.70
2023-05-04T09:15:00,mcc,77.31
2023-05-04T09:16:00,mcc,70.48
2023-05-04T09:17:00,mcc,69.46
2023-05-04T09:18:00,mcc,70.18
2023-05-04T09:19:00,mcc,68.98
2023-05-04T09:20:00,mcc,69.05
2023-05-04T09:21:00,mcc,70.18
2023-05-04T09:22:00,mcc,77.14
2023-05-04T09:23:00,mcc,77.13
2023-05-04T09:24:00,mcc,78.47
2023-05-04T09:25:00,mcc,71.01
2023-05-04T09:26:00,mcc,84.21
2023-05-04T09:27:00,mcc,70.75
2023-05-04T09:28:00,mcc,68.87
2023-05-04T09:29:00,mcc,69.27
2023-05-04T09:30:00,mcc,80.94
2023-05-04T09:31:00,mcc,87.90
2023-05-04T09:32:00,mcc,68.84
2023-05-04T09:33:00,mcc,89.64
2023-05-04T09:34:00,mcc,66.22
2023-05-04T09:35:00,mcc,67.05
2023-05-04T09:36:00,mcc,73.73
2023-05-04T09:37:00,mcc,66.74
2023-05-04T09:38:00,mcc,68.49
2023-05-04T09:39:00,mcc,68.40
2023-05-04T09:40:00,mcc,70.22
2023-05-04T09:41:00,mcc,69.17
2023-05-04T09:42:00,mcc,69.05
2023-05-04T09:43:00,mcc,68.69
2023-05-04T09:44:00,mcc,82.48
2023-05-04T09:45:00,mcc,76.21
2023-05-04T09:46:00,mcc,75.11
2023-05-04T09:47:00,mcc,74.85
2023-05-04T09:48:00,mcc,72.71
2023-05-04T09:49:00,mcc,65.70
2023-05-04T09:50:00,mcc,78.66
2023-05-04T09:51:00,mcc,67.70
2023-05-04T09:52:00,mcc,75.81
2023-05-04T09:53:00,mcc,66.21
2023-05-04T09:54:00,mcc,73.00
2023-05-04T09:55:00,mcc,69.33
2023-05-04T09:56:00,mcc,77.70
2023-05-04T09:57:00,mcc,72.32
2023-05-04T09:58:00,mcc,70.37
2023-05-04T09:59:00,mcc,71.95
2023-05-04T10:00:00,mcc,73.23
2023-05-04T10:01:00,mcc,74.00
2023-05-04T10:02:00,mcc,83.10
2023-05-04T10:03:00,mcc,72.17
2023-05-04T10:04:00,mcc,74.50
2023-05-04T10:05:00,mcc,71.42
2023-05-04T10:06:00,mcc,70.98
2023-05-04T10:07:00,mcc,70.32
2023-05-04T10:08:00,mcc,78.42
2023-05-04T10:09:00,mcc,69.75
2023-05-04T10:10:00,mcc,76.72
2023-05-04T10:11:00,mcc,69.46
2023-05-04T10:12:00,mcc,71.19
2023-05-04T10:13:00,mcc,69.82
2023-05-04T10:14:00,mcc,75.47
2023-05-04T10:15:00,mcc,69.74
2023-05-04T10:16:00,mcc,65.29
2023-05-04T10:17:00,mcc,68.40
2023-05-04T10:18:00,mcc,68.35
2023-05-04T10:19:00,mcc,69.31
2023-05-04T10:20:00,mcc,77.68
2023-05-04T10:21:00,mcc,85.02
2023-05-04T10:22:00,mcc,65.64
2023-05-04T10:23:00,mcc,77.48
2023-05-04T10:24:00,mcc,82.79
2023-05-04T10:25:00,mcc,80.05
2023-05-04T10:26:00,mcc,83.53
2023-05-04T10:27:00,mcc,78.57
2023-05-04T10:28:00,mcc,76.31
2023-05-04T10:29:00,mcc,69.66
2023-05-04T10:30:00,mcc,66.93
2023-05-04T10:31:00,mcc,79.07
2023-05-04T10:32:00,mcc,71.10
2023-05-04T10:33:00,mcc,66.24
2023-05-04T10:34:00,mcc,64.08
2023-05-04T10:35:00,mcc,76.67
2023-05-04T10:36:00,mcc,64.57
2023-05-04T10:37:00,mcc,68.23
2023-05-04T10:38:00,mcc,67.00
2023-05-04T10:39:00,mcc,66.01
2023-05-04T10:40:00,mcc,69.57
2023-05-04T10:41:00,mcc,66.88
2023-05-04T10:42:00,mcc,68.89
2023-05-04T10:43:00,mcc,70.35
2023-05-04T10:44:00,mcc,66.32
2023-05-04T10:45:00,mcc,68.89
2023-05-04T10:46:00,mcc,92.41
2023-05-04T10:47:00,mcc,65.26
2023-05-04T10:48:00,mcc,65.95
2023-05-04T10:49:00,mcc,66.87
2023-05-04T10:50:00,mcc,68.57
2023-05-04T10:51:00,mcc,65.94
2023-05-04T10:52:00,mcc,66.44
2023-05-04T10:53:00,mcc,72.72
2023-05-04T10:54:00,mcc,78.69
2023-05-04T10:55:00,mcc,70.68
2023-05-04T10:56:00,mcc,71.18
2023-05-04T10:57:00,mcc,71.76
2023-05-04T10:58:00,mcc,70.97
2023-05-04T10:59:00,mcc,66.53
2023-05-04T11:00:00,mcc,76.78
2023-05-04T11:01:00,mcc,68.29
2023-05-04T11:02:00,mcc,67.45
2023-05-04T11:03:00,mcc,65.71
2023-05-04T11:04:00,mcc,68.08
2023-05-04T11:05:00,mcc,69.42
2023-05-04T11:06:00,mcc,82.14
2023-05-04T11:07:00,mcc,65.74
2023-05-04T11:08:00,mcc,71.66
2023-05-04T11:09:00,mcc,70.36
2023-05-04T11:10:00,mcc,64.65
2023-05-04T11:11:00,mcc,67.36
2023-05-04T11:12:00,mcc,70.04
2023-05-04T11:13:00,mcc,68.80
2023-05-04T11:14:00,mcc,69.13
2023-05-04T11:15:00,mcc,66.56
2023-05-04T11:16:00,mcc,66.63
2023-05-04T11:17:00,mcc,66.99
2023-05-04T11:18:00,mcc,78.11
2023-05-04T11:19:00,mcc,70.28
2023-05-04T11:20:00,mcc,70.44
2023-05-04T11:21:00,mcc,74.03
2023-05-04T11:22:00,mcc,70.12
2023-05-04T11:23:00,mcc,81.72
2023-05-04T11:24:00,mcc,87.09
2023-05-04T11:25:00,mcc,79.25
2023-05-04T11:26:00,mcc,70.04
2023-05-04T11:27:00,mcc,69.17
2023-05-04T11:28:00,mcc,70.55
2023-05-04T11:29:00,mcc,69.96
2023-05-04T11:30:00,mcc,79.99
2023-05-04T11:31:00,mcc,72.80
2023-05-04T11:32:00,mcc,71.66
2023-05-04T11:33:00,mcc,78.70
2023-05-04T11:34:00,mcc,71.78
2023-05-04T11:35:00,mcc,71.60
2023-05-04T11:36:00,mcc,70.06
2023-05-04T11:37:00,mcc,78.16
2023-05-04T11:38:00,mcc,68.84
2023-05-04T11:39:00,mcc,67.92
2023-05-04T11:40:00,mcc,70.34
2023-05-04T11:41:00,mcc,72.28
2023-05-04T11:42:00,mcc,80.07
2023-05-04T11:43:00,mcc,86.83
2023-05-04T11:44:00,mcc,71.07
2023-05-04T11:45:00,mcc,72.71
2023-05-04T11:46:00,mcc,72.97
2023-05-04T11:47:00,mcc,71.78
2023-05-04T11:48:00,mcc,73.95
2023-05-04T11:49:00,mcc,70.43
2023-05-04T11:50:00,mcc,71.03
2023-05-04T11:51:00,mcc,68.65
2023-05-04T11:52:00,mcc,70.01
2023-05-04T11:53:00,mcc,68.08
2023-05-04T11:54:00,mcc,65.67
2023-05-04T11:55:00,mcc,66.59
2023-05-04T11:56:00,mcc,71.52
2023-05-04T11:57:00,mcc,70.95
2023-05-04T11:58:00,mcc,66.67
2023-05-04T11:59:00,mcc,68.35
2023-05-04T12:00:00,mcc,65.98
2023-05-04T12:01:00,mcc,74.31
2023-05-04T12:02:00,mcc,69.27
2023-05-04T12:03:00,mcc,66.20
2023-05-04T12:04:00,mcc,67.92
2023-05-04T12:05:00,mcc,71.81
2023-05-04T12:06:00,mcc,71.99
2023-05-04T12:07:00,mcc,71.07
2023-05-04T12:08:00,mcc,69.43
2023-05-04T12:09:00,mcc,74.27
2023-05-04T12:10:00,mcc,76.97
2023-05-04T12:11:00,mcc,70.36
2023-05-04T12:12:00,mcc,73.70
2023-05-04T12:13:00,mcc,76.51
2023-05-04T12:14:00,mcc,71.70
2023-05-04T12:15:00,mcc,71.26
2023-05-04T12:16:00,mcc,77.69
2023-05-04T12:17:00,mcc,70.05
2023-05-04T12:18:00,mcc,66.95
2023-05-04T12:19:00,mcc,71.08
2023-05-04T12:20:00,mcc,82.40
2023-05-04T12:21:00,mcc,71.50
2023-05-04T12:22:00,mcc,78.47
2023-05-04T12:23:00,mcc,72.25
2023-05-04T12:24:00,mcc,68.71
2023-05-04T12:25:00,mcc,65.34
2023-05-04T12:26:00,mcc,67.55
2023-05-04T12:27:00,mcc,67.59
2023-05-04T12:28:00,mcc,76.55
2023-05-04T12:29:00,mcc,70.38
2023-05-04T12:30:00,mcc,67.02
2023-05-04T12:31:00,mcc,67.65
2023-05-04T12:32:00,mcc,65.33
2023-05-04T12:33:00,mcc,65.34
2023-05-04T12:34:00,mcc,66.84
2023-05-04T12:35:00,mcc,70.63
2023-05-04T12:36:00,mcc,69.14
2023-05-04T12:37:00,mcc,70.04
2023-05-04T12:38:00,mcc,68.67
2023-05-04T12:39:00,mcc,76.57
2023-05-04T12:40:00,mcc,74.89
2023-05-04T12:41:00,mcc,68.68
2023-05-04T12:42:00,mcc,70.75
2023-05-04T12:43:00,mcc,71.34
2023-05-04T12:44:00,mcc,71.97
2023-05-04T12:45:00,mcc,70.86
2023-05-04T12:46:00,mcc,79.48
2023-05-04T12:47:00,mcc,71.05
2023-05-04T12:48:00,mcc,68.78
2023-05-04T12:49:00,mcc,69.59
2023-05-04T12:50:00,mcc,71.07
2023-05-04T12:51:00,mcc,67.62
2023-05-04T12:52:00,mcc,91.17
2023-05-04T12:53:00,mcc,71.44
2023-05-04T12:54:00,mcc,69.33
2023-05-04T12:55:00,mcc,70.89
2023-05-04T12:56:00,mcc,72.22
2023-05-04T12:57:00,mcc,65.22
2023-05-04T12:58:00,mcc,76.00
2023-05-04T12:59:00,mcc,66.10
2023-05-04T13:00:00,mcc,66.32
2023-05-04T13:01:00,mcc,72.90
2023-05-04T13:02:00,mcc,68.67
2023-05-04T13:03:00,mcc,68.97
2023-05-04T13:04:00,mcc,76.13
2023-05-04T13:05:00,mcc,71.21
2023-05-04T13:06:00,mcc,71.85
2023-05-04T13:07:00,mcc,69.69
2023-05-04T13:08:00,mcc,69.93
2023-05-04T13:09:00,mcc,69.11
2023-05-04T13:10:00,mcc,77.87
2023-05-04T13:11:00,mcc,70.04
2023-05-04T13:12:00,mcc,69.47
2023-05-04T13:13:00,mcc,72.14
2023-05-04T13:14:00,mcc,71.06
2023-05-04T13:15:00,mcc,68.02
2023-05-04T13:16:00,mcc,91.10
2023-05-04T13:17:00,mcc,72.42
2023-05-04T13:18:00,mcc,72.07